Simultaneous Nadir Overpasses (SNOs) Predictions

Prediction of SNOs between LANDSAT-8 and NPP Satellite Orbit:

Table of predicted SNOs for the next 14.0 days since TLE Epoch: 1/14/2017
Index Date (LANDSAT-8) Time (LANDSAT-8) Lat,Lon (LANDSAT-8) SZA (LANDSAT-8 ) Date (NPP) Time (NPP) Lat,Lon (NPP) SZA (NPP ) Distance(km) Time Diff (sec)
1 01/14/2017 06:08:51 -71.03, -94.44 87.76 01/14/2017 06:07:44 -71.06, -97.08 87.64 95.46 67
2 01/14/2017 06:58:33 70.12, 71.84 91.35 01/14/2017 06:58:12 70.10, 71.78 91.35 2.84 21
3 01/14/2017 07:48:03 -70.00,-120.69 88.77 01/14/2017 07:48:53 -69.97,-120.70 88.80 3.59 50
4 01/16/2017 22:25:35 -70.18, 20.16 89.08 01/16/2017 22:24:22 -70.22, 20.06 89.02 6.04 73
5 01/16/2017 23:15:02 70.08,-172.34 90.82 01/16/2017 23:15:05 70.05,-172.36 90.79 3.42 3
6 01/17/2017 00:04:33 -69.91, -4.94 89.35 01/17/2017 00:05:46 -69.91, -4.84 89.36 3.86 73
7 01/19/2017 14:42:03 -70.14, 135.98 89.66 01/19/2017 14:41:13 -70.11, 136.00 89.68 2.64 50
8 01/19/2017 15:31:30 70.03, -56.53 90.23 01/19/2017 15:31:58 70.05, -56.59 90.25 2.87 28
9 01/22/2017 06:08:48 70.96, 85.46 90.55 01/22/2017 06:07:41 71.04, 82.97 90.73 90.56 67
10 01/22/2017 06:58:32 -70.09,-108.21 90.30 01/22/2017 06:58:07 -70.11,-108.23 90.27 2.79 25
11 01/22/2017 07:47:59 69.98, 59.28 89.60 01/22/2017 07:48:51 69.99, 59.27 89.60 1.69 52
12 01/24/2017 22:25:31 70.14,-159.89 89.13 01/24/2017 22:24:18 70.15,-159.82 89.15 2.53 73
13 01/24/2017 23:15:01 -70.04, 7.60 90.98 01/24/2017 23:15:00 -70.06, 7.63 90.95 3.03 1
14 01/25/2017 00:04:30 69.81, 174.93 88.81 01/25/2017 00:05:42 69.84, 175.27 88.81 13.36 72
15 01/27/2017 14:41:59 70.14, -44.01 88.46 01/27/2017 14:41:12 70.15, -44.05 88.48 2.45 47
16 01/27/2017 15:31:29 -70.03, 123.48 91.66 01/27/2017 15:31:53 -70.01, 123.48 91.68 2.34 24




NCC Satellite Simultaneous Nadir Overpasses (SNOs) Prediction Service
